Location: Unspecified
(0.0000°N, 0.0000°E)
Time: 13:21:35
(UTC+00:00)

LightSail 2 - Pass Details

Date: 14 August 2019
Orbit: 701 x 732 km, 24.0° (Epoch: 21 August)

Event Time Altitude Azimuth Distance (km) Brightness Sun altitude
Rises 19:36:22 0° 255° (WSW) 3,078 9.4 -22.2°
Reaches altitude 10° 19:38:52 10° 260° (W) 2,155 8.5 -22.8°
Maximum altitude 19:43:46 49° 335° (NNW) 898 5.8 -24.0°
Enters shadow 19:45:34 33° 27° (NNE) 1,149 6.1 -24.4°
